STARLINK-35288, 65749

Orbit data source: Space-Track

STARLINK-35288, 65749 is a payload satellite owned by SpaceX/Seattle (US) in LEO that was launched on Thu, 25 Sep 2025 UTC via an FALCON 9 launch vehicle from the Air Force Eastern Test Range (AFETR). Payload-class satellites include a variety of spacecraft equipped with specific instruments for various scientific and technological missions. These include communications satellites like Starlink; space stations such as the ISS; scientific satellites like the Hubble; Earth observation satellites from companies like Planet Labs, Umbra, and HawkEye 360; GPS; miniature CubeSats for education and research; and military/defense satellites.

Loading next visibility...
Identifier
65749, 2025-216R
Orbit
LEO
Country
Flag of USUS
Related business
Manufacturer
SpaceX/Seattle
Mission
Operational Commercial Communications
Bus & Motor
STARLINK V2MO, Unknown motor
Mass
575 kg wet, ~530 kg dry
Launch date (UTC)
2025-09-25 (9 months ago)
Launch vehicle
FALCON 9
Launch site
Air Force Eastern Test Range (AFETR)
Object type
Payload
Rocket body
Debris
Shape & HBR
Box + 2 Pan, 17.7 m
Radar Cross Section
36.964 m², Large (>1 m²)

Expand to show TLE details & history
Last TLE update: 12 hours ago

TLE from 12 hours ago
0 STARLINK-35288
1 65749U 25216R   26171.36316683  .00011480  00000-0  39928-3 0  9998
2 65749  53.1572 215.9671 0001073  90.9191 269.1933 15.30185984 42235
Epoch: 2026-06-20T08:42Z
TLE epoch observation values (Epoch: 2026-06-20T08:42:57.614Z)
Latitude
0.00002°
Longitude
176.64819°
Altitude
476.167 km
Speed
7.629 km/s
True Right ascension
14h 23m 52s
True Declination
0° 00' 00"
Sunlit
Object was in full shadow at epoch
Visualization orbit readout
Latitude
Unknown
Longitude
Unknown
Altitude
Unknown
Speed
Unknown
Apparent Right ascension
Unknown
Apparent Declination
Unknown
Sunlit
N/A
Visualization observer readout
Local Sidereal Time
07:12:17
Azimuth
Unknown
Elevation
Unknown
Doppler factor
Unknown
Orbital elements
Apogee altitude
476.249 km
Perigee altitude
474.778 km
Semi-major axis
6,853.651 km
Eccentricity
0.00011
Inclination
53.1572°
RAAN
215.9671°
Arg. of periapsis
90.9191°
True anomaly
269.18101°
Mean anomaly
269.1933°
Eccentric anomaly
269.18715°
Mean motion
3.82525 °/min
Orbital period
94.11 mins
BSTAR
0.00039928
Loading maneuver chart data...
Computing Atmospheric mass density...
Loading historical data...
Loading historical data...
Loading historical data...
Loading historical data...
Loading historical data...
Loading historical data...
Loading historical data...

Documentation

Showing up to 5 results
|